This is the latest recevied weather packets stored in our database for station/object KJ7HSW. If no packets are shown the sender has not sent any weather packets the latest 10 day(s).
| Time | Temp. | Humidity | Pressure | Rain* | Wind** | Luminosity | Snow |
|---|---|---|---|---|---|---|---|
| 1777954924 | 17.78° C | 72% | 1009.3 hPa | 0 mm | - | 0 W/m² | - |
| 1777954620 | 17.78° C | 69% | 1009.4 hPa | 0 mm | - | 0 W/m² | - |
| 1777954318 | 17.78° C | 68% | 1009.2 hPa | 0 mm | - | 0 W/m² | - |
| 1777954015 | 17.78° C | 68% | 1009.2 hPa | 0 mm | - | 0 W/m² | - |
| 1777953712 | 17.78° C | 70% | 1009.2 hPa | 0 mm | - | 0 W/m² | - |
| 1777953408 | 17.78° C | 70% | 1009.2 hPa | 0 mm | - | 0 W/m² | - |
| 1777953105 | 18.33° C | 70% | 1009 hPa | 0 mm | - | 0 W/m² | - |
| 1777952801 | 18.33° C | 70% | 1008.9 hPa | 0 mm | - | 0 W/m² | - |
| 1777952499 | 18.33° C | 69% | 1009 hPa | 0 mm | - | 1 W/m² | - |
| 1777952195 | 18.89° C | 68% | 1008.8 hPa | 0 mm | - | 1 W/m² | - |
| 1777951893 | 18.89° C | 67% | 1008.9 hPa | 0 mm | - | 2 W/m² | - |
| 1777951591 | 19.44° C | 67% | 1008.7 hPa | 0 mm | - | 4 W/m² | - |
| 1777951287 | 19.44° C | 67% | 1008.6 hPa | 0 mm | - | 5 W/m² | - |
| 1777950984 | 19.44° C | 65% | 1008.7 hPa | 0 mm | - | 7 W/m² | - |
| 1777950680 | 20° C | 65% | 1008.6 hPa | 0 mm | - | 9 W/m² | - |
| 1777950378 | 20° C | 63% | 1008.5 hPa | 0 mm | - | 11 W/m² | - |
| 1777950073 | 20.56° C | 63% | 1008.4 hPa | 0 mm | - | 13 W/m² | - |
| 1777949769 | 20.56° C | 60% | 1008.5 hPa | 0 mm | - | 16 W/m² | - |
| 1777949469 | 20.56° C | 56% | 1008.4 hPa | 0 mm | - | 19 W/m² | - |
| 1777949165 | 20.56° C | 60% | 1008.2 hPa | 0 mm | - | 20 W/m² | - |
| 1777948863 | 21.11° C | 59% | 1008 hPa | 0 mm | - | 22 W/m² | - |
| 1777948560 | 21.11° C | 58% | 1008.2 hPa | 0 mm | - | 24 W/m² | - |
| 1777948257 | 21.11° C | 58% | 1008.1 hPa | 0 mm | - | 27 W/m² | - |
| 1777947954 | 21.67° C | 56% | 1008.4 hPa | 0 mm | - | 30 W/m² | - |
| 1777947651 | 21.67° C | 56% | 1008.4 hPa | 0 mm | - | 31 W/m² | - |
* Rain latest hour (hover to see other rain measurements)
** Current wind speed in m/s (hover to see current wind gust speed)